Theta_e
300 300 300 300 301 301 298 297 297 298 297 298 300 298 299 300 295 298 307 307 308 304 304 306 308 308 306 308 314 313 318 319 321 319 319 319 319 318 322 321 324 320 319 323 326 329 329 328 340 335 329 340 340 336
300 300 300 300 301 301 300 298 297 297 298 299 300 299 297 298 295 295 301 306 306 307 306 309 309 310 309 308 309 309 318 319 325 326 324 325 320 322 321 323 325 328 319 320 320 324 332 345 346 336 335 338 339 335
300 300 300 300 301 302 301 299 297 297 298 299 299 299 295 295 295 296 297 300 305 304 306 307 308 312 311 310 308 309 312 316 316 320 324 324 329 324 329 330 330 328 330 331 330 342 345 345 342 344 344 345 343 342
300 300 301 302 302 301 301 299 297 297 297 299 298 297 295 295 295 295 296 298 302 304 307 308 313 313 313 310 309 308 308 313 314 316 320 320 322 317 319 324 327 327 331 334 337 336 339 337 336 336 343 342 344 341
302 301 301 301 301 301 301 299 297 297 297 298 298 296 295 294 294 295 303 304 305 306 308 307 309 315 314 313 312 312 309 309 313 316 316 317 314 318 319 319 327 330 332 335 337 334 337 337 334 336 344 341 341 342
299 299 301 301 301 301 300 299 297 297 297 297 297 295 294 294 295 302 305 308 305 306 308 310 310 313 313 312 313 312 308 308 311 312 312 313 314 317 319 323 329 329 330 330 331 331 334 330 330 338 340 336 338 342
297 298 299 300 300 300 299 298 297 297 297 297 296 294 294 294 295 299 305 309 306 306 308 311 312 312 313 313 310 308 308 307 309 309 309 311 312 314 318 319 327 328 326 327 327 329 332 334 336 330 329 330 334 333
299 298 298 299 300 299 298 298 297 297 297 297 295 294 294 295 299 302 305 308 305 306 307 311 314 316 316 312 311 306 308 307 308 311 310 311 311 315 318 317 320 325 325 325 325 324 326 331 333 334 332 331 331 332
302 301 299 299 300 299 298 298 297 297 297 296 294 294 299 304 305 310 309 307 307 308 310 311 313 316 313 314 316 315 311 312 310 312 312 312 312 315 316 316 316 325 324 321 319 319 325 329 328 328 329 330 332 333
303 302 302 299 298 298 298 298 297 298 297 295 295 302 303 309 310 309 309 308 308 307 306 309 309 317 314 315 318 316 315 320 318 315 311 313 313 312 316 317 315 320 318 318 319 320 319 321 322 327 327 328 328 328
302 302 302 301 299 298 297 297 297 298 296 298 300 306 307 309 308 308 310 310 310 312 308 308 306 310 314 317 317 315 318 317 320 317 316 317 318 322 319 319 317 317 318 318 318 318 318 318 318 319 320 325 327 325
300 302 302 301 300 298 296 297 298 298 299 300 299 300 303 307 307 311 310 311 312 313 311 310 308 314 317 319 320 320 322 321 321 319 324 322 320 319 318 318 316 315 317 318 319 319 319 320 321 320 322 323 327 331
300 301 302 301 300 298 296 298 298 298 297 298 302 304 307 306 310 312 313 313 312 311 316 314 318 318 316 318 315 316 318 319 322 325 324 321 319 319 318 318 318 317 317 317 317 317 318 319 320 321 322 324 325 327
300 301 302 301 299 297 298 298 298 297 296 302 308 302 307 307 310 310 309 313 313 315 314 313 315 315 314 316 318 320 319 320 324 323 324 321 321 320 318 318 317 315 314 314 315 317 317 318 319 320 321 323 324 325
299 302 302 300 298 297 298 298 297 296 301 307 308 302 308 307 307 313 313 313 314 314 313 314 314 313 314 318 316 317 321 322 322 322 319 317 317 316 315 315 314 315 314 314 315 315 316 317 318 318 319 321 323 322
298 301 300 298 297 298 298 297 294 299 304 306 307 309 308 310 312 313 314 313 312 312 313 313 315 315 317 315 318 320 321 322 322 320 319 315 314 313 312 312 313 314 314 314 314 315 317 317 317 317 319 322 322 322
300 298 297 298 298 298 297 296 297 301 306 308 308 308 309 312 315 315 314 313 312 313 314 314 317 317 315 317 318 318 319 319 317 315 313 312 312 311 311 312 313 314 314 314 315 316 317 319 320 321 317 319 320 323
300 298 298 298 298 298 297 298 302 305 306 305 306 308 309 312 312 311 311 311 313 313 312 315 313 316 316 320 321 318 317 316 313 313 313 312 312 313 314 315 315 316 315 315 317 319 320 320 320 320 319 318 317 321
299 298 298 298 296 299 300 302 304 307 306 306 308 309 311 312 310 310 310 310 311 309 309 311 314 314 317 314 314 315 314 313 313 312 312 314 314 314 316 317 318 319 319 319 320 319 319 319 318 319 319 318 319 318
299 298 297 297 300 303 306 304 307 306 309 310 310 311 310 310 312 311 308 307 307 308 310 312 315 314 313 313 312 312 312 312 312 313 313 313 315 316 316 318 317 318 318 318 318 318 318 317 317 317 317 317 316 316
297 296 297 298 300 301 304 306 306 307 308 313 311 311 310 310 310 308 307 306 307 308 310 311 312 312 312 313 313 313 313 313 313 313 314 314 314 316 316 317 317 317 316 316 317 317 317 316 316 316 315 314 314 314
301 298 300 299 301 306 306 308 309 308 309 312 312 313 313 312 307 305 304 306 307 309 308 307 307 308 308 311 312 313 314 314 313 314 315 315 315 315 316 316 316 316 316 316 316 316 316 315 315 315 314 314 314 314
300 301 303 305 306 301 302 307 309 311 311 311 310 311 308 307 307 303 307 308 305 305 306 307 308 310 310 312 314 313 313 314 315 316 316 315 315 317 315 315 315 315 315 315 316 316 316 316 315 315 315 315 315 314
302 303 306 306 303 299 306 308 307 308 307 308 308 309 309 307 306 307 308 308 307 308 309 310 311 312 313 313 313 313 314 315 316 316 317 317 314 315 315 315 315 315 315 314 314 314 314 314 314 314 313 313 312 312
302 298 301 296 303 308 310 310 307 305 306 308 308 310 309 307 308 308 307 309 310 310 311 313 313 313 313 313 313 314 314 315 316 316 317 317 317 316 316 315 314 313 313 313 313 313 313 312 312 312 312 312 312 313
302 304 303 308 306 309 307 306 305 307 309 310 310 310 308 309 310 309 310 310 310 310 313 313 313 313 314 314 313 314 315 315 316 316 317 317 315 315 314 312 312 314 315 316 316 316 316 316 315 314 315 315 314 314
305 307 308 306 306 306 306 307 308 309 311 311 312 312 312 313 312 311 310 310 311 313 314 314 314 314 314 314 315 315 316 316 317 317 317 316 316 316 315 315 315 315 315 316 317 317 315 313 313 313 312 312 314 313
304 304 305 307 306 305 309 310 310 311 312 312 313 315 316 314 314 311 311 313 314 314 314 314 314 314 315 315 316 316 316 316 316 317 316 317 317 316 313 312 313 313 314 315 314 313 313 313 311 311 311 311 311 311
303 305 306 309 309 310 311 312 314 313 312 313 316 315 314 312 312 313 313 314 314 314 314 315 315 315 315 315 315 315 316 317 316 314 311 306 308 310 309 309 311 311 311 311 311 311 312 312 311 311 311 311 310 310
310 307 309 312 312 313 313 313 313 312 312 312 311 312 313 312 312 312 313 313 314 314 315 315 315 316 316 316 316 316 314 314 315 315 306 305 308 310 309 309 310 311 311 310 309 309 309 310 310 310 310 310 310 310
311 310 311 313 314 313 313 312 313 313 313 313 312 313 314 313 313 313 313 313 313 314 314 314 315 316 316 315 315 313 312 313 313 313 312 312 312 312 312 312 312 312 312 311 311 311 310 311 312 311 311 310 309 308
314 314 313 312 312 311 311 311 309 312 313 313 313 313 313 314 314 313 314 313 313 314 314 315 315 313 312 312 313 312 312 313 313 313 312 312 313 312 312 312 312 312 311 312 312 311 311 310 310 309 309 309 307 306
315 315 315 314 314 314 313 313 311 311 311 312 312 311 312 312 312 311 313 312 313 313 314 314 314 312 312 312 312 311 311 311 311 311 312 311 311 311 311 311 311 310 310 309 309 310 309 309 308 307 307 306 306 306
Wind_Speed
14 13 12 11 11 11 11 12 12 12 13 15 16 17 18 20 19 18 2 14 7 2 6 4 1 3 5 3 2 5 4 6 5 4 3 3 2 3 0 4 4 6 5 4 2 1 7 2 3 5 6 6 21 14
15 13 13 13 12 12 11 11 11 10 12 14 15 16 16 17 18 17 5 10 12 4 6 14 26 23 17 18 2 5 4 1 1 3 2 2 2 1 4 3 5 2 5 5 8 5 2 4 5 4 2 9 8 10
16 15 15 14 13 13 12 11 10 10 11 13 14 14 14 15 16 15 12 13 7 2 6 3 6 9 9 14 11 3 2 1 3 3 2 2 2 2 2 2 3 5 4 2 3 7 5 6 5 5 5 4 5 6
17 17 17 17 15 13 13 12 11 11 11 12 14 14 14 14 15 15 13 9 5 5 1 6 11 6 6 7 7 7 4 2 2 2 1 0 1 1 2 4 3 4 5 4 2 3 2 8 6 8 6 7 5 4
18 18 18 16 15 14 13 12 11 11 11 12 13 14 14 15 16 17 12 1 2 0 2 5 21 13 9 5 1 3 3 3 2 2 1 2 2 2 3 1 2 2 1 2 2 6 2 2 4 5 5 11 4 6
19 18 16 15 14 14 13 13 12 11 12 12 13 14 13 14 16 8 3 4 5 3 1 3 5 4 9 9 6 2 4 2 3 3 3 3 3 3 1 0 4 4 2 3 2 3 5 4 1 4 3 6 7 9
16 16 16 16 15 15 14 13 12 11 11 12 14 13 13 12 13 4 4 2 5 8 2 4 5 4 12 6 1 1 2 2 3 2 2 2 3 3 2 3 6 6 7 5 4 5 5 3 2 2 5 4 7 7
18 16 15 15 16 14 14 13 12 11 11 12 13 14 14 14 12 9 2 1 5 2 1 2 4 4 8 1 1 2 1 2 2 3 2 2 2 2 3 6 3 6 1 4 7 8 4 8 5 1 4 7 4 3
22 20 18 17 16 14 14 13 11 10 10 11 13 14 5 3 3 3 3 1 3 1 1 1 1 3 5 3 2 4 2 1 2 3 3 4 2 4 6 7 4 7 6 6 6 8 8 8 6 4 4 4 5 5
23 22 20 20 18 15 15 13 10 9 9 10 8 2 2 4 4 3 1 1 2 1 1 3 2 2 3 2 3 3 2 2 1 5 2 4 4 4 6 4 3 4 6 7 8 6 6 4 5 4 1 3 5 4
22 22 21 19 19 17 14 12 9 7 6 2 2 2 5 1 2 1 2 2 2 3 4 4 5 3 2 2 3 2 2 2 1 5 5 2 1 2 4 10 7 7 9 9 7 6 8 7 6 6 8 5 8 10
20 21 22 21 21 18 14 13 10 7 2 3 10 9 4 1 0 1 3 3 4 4 3 4 5 4 2 3 2 1 2 2 5 2 1 1 2 1 6 9 9 10 13 10 16 10 11 11 12 11 9 12 9 10
20 21 24 22 22 18 16 13 11 9 9 3 2 2 3 2 1 4 4 4 3 3 1 1 3 2 2 3 2 3 4 5 2 4 2 1 2 3 4 5 6 11 12 12 11 16 16 15 12 10 10 14 14 10
17 18 26 24 22 18 16 12 9 4 3 1 3 3 4 4 4 4 4 3 4 0 1 3 2 2 0 3 2 2 4 1 3 3 0 1 3 3 3 3 5 5 6 7 9 11 11 9 10 10 7 7 10 11
14 22 25 25 21 18 15 12 8 6 2 3 2 4 6 5 2 2 2 3 1 1 1 2 2 3 1 1 1 2 3 1 3 1 1 1 3 4 6 6 6 6 5 5 10 10 12 11 10 14 11 7 5 4
16 27 20 25 21 18 14 10 7 3 3 3 4 3 3 3 3 2 6 3 2 1 2 2 2 2 2 2 1 4 1 2 2 1 1 2 4 5 6 6 8 10 10 11 13 15 16 15 13 14 15 11 10 10
21 7 24 23 20 16 14 6 5 4 3 4 3 2 3 2 3 3 1 2 3 3 1 2 2 4 2 1 1 3 1 1 3 2 0 2 4 6 7 10 12 13 11 12 14 14 17 17 14 9 7 2 3 4
18 24 25 24 22 16 7 4 3 3 5 4 2 4 2 1 2 1 2 2 2 2 2 1 1 2 2 2 3 1 3 2 2 1 2 3 7 11 12 13 17 14 11 13 13 13 11 10 4 3 4 4 5 7
26 27 25 24 17 6 6 4 5 3 4 3 3 1 1 1 2 2 2 5 3 2 2 2 1 1 2 2 2 1 1 1 1 3 3 5 8 9 12 12 10 10 3 2 6 8 9 8 6 2 2 5 10 8
21 22 22 21 2 2 2 3 5 2 3 2 2 2 0 1 1 2 4 4 3 2 3 2 2 0 2 1 0 1 1 1 1 3 3 3 8 10 11 8 9 12 12 11 13 12 11 10 9 10 10 10 10 10
17 17 15 10 3 6 3 2 2 3 2 2 2 2 1 2 3 4 4 4 4 1 2 2 2 1 3 3 3 2 1 2 1 1 2 2 8 7 7 7 9 11 9 9 8 11 13 12 13 13 16 16 15 15
5 16 4 8 4 5 3 3 1 3 1 1 2 2 1 2 3 3 4 3 2 0 2 1 1 1 3 1 2 3 2 3 4 5 3 4 1 3 5 7 7 7 8 8 9 9 11 12 14 15 18 17 18 18
11 8 4 6 3 1 5 12 4 3 2 2 2 3 3 2 2 5 1 0 2 2 3 3 3 2 4 3 1 2 3 4 4 4 3 2 0 1 3 5 7 7 7 8 11 14 14 12 14 17 17 17 17 17
4 3 2 2 3 3 2 1 2 3 4 3 3 2 2 2 2 1 2 2 3 3 1 3 2 1 0 1 1 1 3 3 3 4 5 5 9 5 4 8 8 9 9 9 11 13 13 14 15 18 19 19 18 19
2 4 2 4 3 2 2 3 3 4 2 1 2 2 1 0 1 1 2 2 1 2 2 2 3 2 1 1 1 1 1 4 6 3 7 11 11 11 13 10 11 13 15 18 17 15 13 14 14 15 13 14 14 11
1 2 3 3 3 3 3 2 1 1 0 0 2 2 2 1 1 3 2 1 2 2 2 3 3 2 0 3 3 2 3 0 2 5 8 8 12 15 10 6 5 8 9 5 4 6 7 11 13 13 12 11 9 6
1 1 2 2 2 2 1 2 1 0 2 3 2 4 3 2 3 2 1 2 2 1 1 5 7 7 7 7 3 3 1 5 9 4 2 6 7 8 10 12 12 10 4 7 9 12 8 10 10 10 8 12 17 18
3 0 2 1 0 2 1 2 3 3 3 3 1 3 2 3 1 2 1 2 5 5 4 3 6 8 7 5 6 8 7 8 8 8 8 8 11 9 8 11 13 9 5 3 4 6 5 5 6 16 19 20 18 18
2 2 2 3 3 3 3 2 3 4 4 4 2 2 2 1 3 4 4 9 7 4 2 4 8 7 11 14 15 14 15 16 9 4 5 3 4 11 11 11 9 9 9 9 10 12 15 19 17 14 12 12 13 12
3 3 2 2 2 3 3 5 2 2 3 4 4 2 2 1 3 7 11 10 10 12 14 14 14 15 17 14 16 8 8 5 18 19 8 7 12 11 11 10 9 7 4 3 3 3 3 4 4 4 7 8 6 6
4 4 3 5 3 3 3 4 7 6 3 4 3 5 3 2 1 7 13 16 15 14 15 16 19 20 21 17 13 11 11 20 21 23 22 18 15 10 8 7 8 6 4 2 7 3 2 3 3 5 9 11 12 11
4 5 1 3 2 2 5 4 4 3 2 2 2 2 2 2 2 4 11 19 20 18 22 18 15 3 13 18 22 17 20 20 19 17 18 17 16 15 14 12 10 7 9 7 10 8 7 10 11 13 12 9 8 7
2 2 3 3 3 3 1 3 4 4 3 4 3 5 5 5 4 6 5 13 20 23 18 14 10 24 21 21 21 19 17 16 13 11 9 8 9 9 8 8 7 7 8 11 9 7 8 9 9 7 7 6 5 4
Wind_Direction
237 249 258 268 275 287 303 319 325 329 335 341 345 349 351 354 0 360 313 25 27 279 279 255 24 15 336 16 37 293 24 1 19 58 110 233 159 257 291 237 205 192 168 215 90 138 296 302 53 196 213 163 178 204
237 246 255 264 272 273 288 304 315 319 330 337 338 342 346 351 355 1 311 357 351 207 248 290 285 276 248 248 142 344 152 309 224 73 21 330 319 328 160 278 334 313 191 202 172 209 318 358 73 53 144 165 201 215
239 246 254 259 265 265 275 288 298 303 317 329 333 333 338 342 346 352 329 340 347 339 302 335 256 333 207 235 249 109 315 227 21 176 178 257 326 43 30 269 318 306 5 31 109 359 57 66 65 68 74 154 199 190
243 249 255 259 255 256 265 273 281 291 302 314 324 325 328 331 334 333 321 306 313 276 277 284 5 307 306 207 230 228 186 58 99 66 132 153 234 76 246 227 190 234 3 1 54 271 234 32 26 342 35 72 114 22
246 250 251 247 249 249 252 262 270 283 292 303 314 318 320 325 328 323 300 79 14 67 256 283 311 301 205 187 212 7 150 93 76 15 55 238 245 32 298 35 338 343 302 94 204 267 91 274 291 333 28 42 84 117
245 242 239 238 237 235 245 254 261 275 283 295 306 311 314 323 330 340 25 95 34 12 46 316 291 280 166 171 171 205 161 120 110 149 229 273 270 91 279 281 270 257 103 144 199 211 129 153 7 337 65 70 35 116
236 234 233 231 230 235 242 247 254 270 278 292 302 304 307 312 313 250 236 153 359 349 66 313 308 281 187 155 72 69 134 156 135 219 220 206 302 66 259 197 235 234 139 128 93 94 63 226 151 343 355 17 18 46
232 229 227 223 225 231 236 239 249 266 277 293 300 302 303 298 283 287 259 324 209 257 314 266 271 8 17 313 283 164 127 58 289 206 344 179 318 141 256 247 245 229 111 67 102 96 143 104 130 234 350 339 273 10
229 226 223 217 222 231 227 231 245 261 280 296 302 306 298 234 224 234 192 200 200 177 211 279 237 250 353 342 37 7 79 161 258 185 230 120 241 217 227 234 252 201 174 151 96 85 85 93 103 84 81 63 56 91
224 222 220 217 218 221 216 226 240 256 282 301 305 276 292 219 209 215 189 91 4 254 215 230 237 268 87 349 26 14 341 239 303 238 115 155 238 268 323 313 293 89 87 97 81 42 29 36 10 350 32 162 159 185
216 216 213 212 210 211 212 217 224 254 274 255 260 250 329 193 240 302 249 171 205 239 209 228 184 189 203 125 168 154 275 313 316 259 147 200 256 26 335 71 55 65 70 78 101 118 80 68 34 344 317 261 212 199
216 211 207 204 202 203 206 207 207 225 225 278 296 297 287 282 18 247 223 251 196 236 213 176 203 172 145 58 84 287 122 344 252 299 136 191 217 351 52 50 41 43 45 39 30 29 32 41 33 19 13 1 318 226
206 202 197 195 193 196 197 201 207 238 277 280 225 262 128 250 171 207 206 233 235 264 221 39 51 139 94 158 132 132 176 225 351 2 223 98 300 19 51 59 33 27 33 30 18 8 4 4 6 20 16 18 10 333
184 186 190 186 185 187 189 192 200 213 256 239 211 299 178 242 227 203 233 232 244 327 119 99 65 118 301 44 131 206 232 119 179 160 184 303 351 14 40 26 39 4 5 4 349 338 337 337 337 345 6 13 6 355
180 178 173 177 178 179 179 183 185 197 263 253 229 232 215 228 258 197 275 299 235 348 103 47 28 102 288 64 217 23 294 52 52 146 309 349 23 13 356 345 344 338 329 323 318 311 301 290 298 295 298 316 331 295
158 158 163 167 172 170 169 166 169 210 254 236 239 276 299 57 5 142 255 280 298 317 37 52 77 57 281 184 268 233 335 90 197 177 206 9 345 324 312 311 301 297 291 288 290 289 286 281 277 277 289 286 273 244
144 128 164 163 160 159 161 150 183 230 249 252 264 274 269 145 253 281 78 239 313 77 131 92 126 224 300 255 107 35 61 27 112 34 9 284 291 302 300 297 290 285 282 288 292 283 283 284 281 285 288 248 116 349
119 150 155 156 156 153 179 218 253 230 239 247 227 280 274 178 156 286 288 289 55 65 64 183 166 22 266 74 73 45 65 84 96 191 246 289 316 321 313 301 297 289 271 280 287 279 274 260 225 209 40 91 79 85
141 148 155 155 155 169 182 221 211 251 245 237 275 299 129 289 290 261 316 350 41 95 80 28 17 39 69 55 107 56 30 83 273 284 284 318 322 315 311 320 347 15 334 347 59 57 73 86 83 79 153 135 112 116
142 147 157 166 176 281 252 245 204 235 286 264 348 2 12 199 265 76 43 21 24 48 31 53 68 350 129 166 144 158 182 277 293 309 306 321 352 348 346 19 36 45 58 60 65 66 60 67 74 93 102 97 93 86
139 155 167 187 262 227 272 274 229 216 289 334 312 55 310 358 33 30 6 343 42 32 51 78 99 60 67 99 54 18 337 12 257 263 289 307 342 9 32 50 68 70 56 50 44 56 59 49 65 79 86 87 95 101
166 171 172 204 258 208 244 207 232 277 152 327 5 196 133 54 36 359 311 15 321 36 82 73 282 318 328 311 319 320 357 332 317 302 292 284 353 40 38 69 70 60 69 72 79 74 83 84 87 91 93 95 102 104
159 191 236 216 237 109 246 170 192 218 140 231 354 73 43 69 22 324 351 292 270 261 303 280 287 282 241 279 323 63 29 4 17 41 23 8 254 121 98 92 109 100 89 84 96 104 103 108 109 105 107 110 109 105
244 248 265 291 169 252 299 331 48 44 15 44 22 66 60 345 352 28 272 267 254 279 280 268 247 293 218 33 58 32 12 11 6 20 30 89 100 110 89 98 102 103 99 102 101 107 113 116 122 122 123 121 119 117
69 298 100 302 273 321 311 49 47 49 47 6 310 69 160 84 324 271 245 264 271 283 283 237 206 214 189 123 129 188 125 91 42 38 81 125 115 101 90 88 100 113 123 118 116 110 109 123 125 128 130 135 133 129
65 270 129 335 322 52 8 78 94 94 6 74 237 160 157 211 236 248 245 250 267 264 229 195 176 131 165 197 161 150 153 264 67 117 128 125 127 123 123 130 146 171 170 191 223 216 212 201 198 197 200 195 200 190
281 289 336 11 51 46 75 78 50 320 248 218 208 181 200 226 242 228 257 247 256 311 178 172 165 169 188 195 234 260 189 156 147 130 59 141 144 161 158 175 209 224 229 250 274 286 295 162 177 190 194 215 215 192
226 312 177 11 145 188 214 194 213 218 225 212 187 217 217 195 235 169 167 182 156 147 157 206 152 179 212 235 271 285 264 237 241 259 275 251 240 243 184 129 109 103 143 185 150 93 145 208 182 130 116 115 130 158
209 197 197 218 216 198 227 244 229 218 196 178 183 139 152 201 151 123 165 177 169 153 111 253 263 248 270 278 283 281 278 276 241 193 182 193 144 180 179 165 143 126 111 101 95 90 94 105 114 111 111 115 130 145
191 158 209 211 220 230 237 188 262 12 75 115 106 89 68 16 184 174 175 186 198 218 224 233 241 253 248 260 273 299 30 207 217 213 183 191 194 177 179 184 186 183 150 104 100 136 160 142 136 135 134 123 165 185
145 176 236 222 191 205 148 140 98 91 76 74 76 112 115 167 74 232 219 221 231 245 259 263 271 260 251 261 244 137 74 82 100 112 117 117 118 113 90 147 173 170 132 147 223 178 94 11 298 156 133 115 113 120
196 215 237 51 52 160 142 157 165 161 168 165 171 173 172 191 240 229 224 222 232 245 258 270 289 296 149 137 142 132 119 111 107 103 102 103 102 103 109 98 95 78 48 90 142 119 93 83 92 96 99 102 101 107
350 344 318 338 350 342 282 156 155 179 183 193 222 194 194 191 216 235 219 220 228 240 243 278 187 146 130 131 134 134 131 126 120 118 115 104 103 111 117 112 101 90 74 74 81 110 106 93 90 82 89 90 84 73